When you browse on this site, cookies collect data to enhance your experience and personalize the content and advertising you see.
Visit our Privacy Policy to learn more. By continuing to use the site, you agree to this use of cookies and data.
  • In Österreich
  • Länderverzeichnis
  • Für 7 Tage
  • Wassertemperatur
  • Wetterkarte
  • News
  • Widgets
  • user-avatar
    Anmelden

    Stündliche Wetter Orizatlán

    Heute, 17 November, Sonntag

    Zeit Temperatur Niederschläge Wind Luftdruck Luftfeuchtigkeit
    00:00 +15°C° 0 mm 0 m/S 745 mmHg 94%
    01:00 +14°C° 0 mm 0 m/S 745 mmHg 94%
    02:00 +14°C° 0 mm 0 m/S 745 mmHg 94%
    03:00 +14°C° 0 mm 0 m/S 745 mmHg 94%
    04:00 +14°C° 0 mm 0 m/S 744 mmHg 94%
    05:00 +14°C° 0 mm 0 m/S 744 mmHg 93%
    06:00 +16°C° 0 mm 0 m/S 745 mmHg 88%
    07:00 +18°C° 0 mm 0 m/S 745 mmHg 82%
    08:00 +20°C° 0 mm 0 m/S 745 mmHg 77%
    09:00 +23°C° 0 mm 1 m/S 745 mmHg 74%
    10:00 +24°C° 0 mm 1 m/S 745 mmHg 72%
    11:00 +25°C° 0 mm 2 m/S 744 mmHg 70%
    12:00 +25°C° 0 mm 2 m/S 743 mmHg 71%
    13:00 +26°C° 0 mm 2 m/S 743 mmHg 73%
    14:00 +26°C° 0 mm 2 m/S 742 mmHg 74%
    15:00 +24°C° 0 mm 1 m/S 742 mmHg 80%
    16:00 +23°C° 0 mm 1 m/S 743 mmHg 86%
    17:00 +22°C° 0 mm 1 m/S 743 mmHg 93%
    18:00 +21°C° 0 mm 1 m/S 744 mmHg 93%
    19:00 +21°C° 0 mm 1 m/S 744 mmHg 94%
    20:00 +19°C° 0 mm 0 m/S 745 mmHg 94%
    21:00 +18°C° 0 mm 0 m/S 745 mmHg 95%
    22:00 +18°C° 0 mm 0 m/S 745 mmHg 95%
    23:00 +18°C° 0 mm 0 m/S 744 mmHg 95%

    Morgen, 18 November, Montag

    Zeit Temperatur Niederschläge Wind Luftdruck Luftfeuchtigkeit
    00:00 +17°C° 0 mm 0 m/S 744 mmHg 95%
    01:00 +17°C° 0 mm 0 m/S 744 mmHg 96%
    02:00 +17°C° 0 mm 0 m/S 744 mmHg 96%
    03:00 +17°C° 0 mm 0 m/S 744 mmHg 96%
    04:00 +17°C° 0 mm 0 m/S 744 mmHg 95%
    05:00 +17°C° 0 mm 0 m/S 744 mmHg 95%
    06:00 +18°C° 0 mm 0 m/S 744 mmHg 92%
    07:00 +20°C° 0 mm 0 m/S 745 mmHg 89%
    08:00 +21°C° 0 mm 0 m/S 745 mmHg 86%
    09:00 +24°C° 0 mm 1 m/S 745 mmHg 81%
    10:00 +25°C° 0 mm 1 m/S 745 mmHg 77%
    11:00 +26°C° 0 mm 1 m/S 744 mmHg 73%
    12:00 +26°C° 0 mm 1 m/S 743 mmHg 74%
    13:00 +26°C° 0 mm 1 m/S 743 mmHg 75%
    14:00 +26°C° 0 mm 1 m/S 742 mmHg 75%
    15:00 +24°C° 0 mm 1 m/S 742 mmHg 80%
    16:00 +23°C° 0 mm 1 m/S 743 mmHg 85%
    17:00 +20°C° 0 mm 0 m/S 743 mmHg 90%
    18:00 +20°C° 0 mm 0 m/S 743 mmHg 90%
    19:00 +19°C° 0 mm 0 m/S 744 mmHg 91%
    20:00 +19°C° 0 mm 0 m/S 744 mmHg 92%
    21:00 +19°C° 0 mm 0 m/S 744 mmHg 93%
    22:00 +18°C° 0 mm 0 m/S 744 mmHg 94%
    23:00 +18°C° 0 mm 0 m/S 744 mmHg 94%

    übermorgen, 19 November, Dienstag

    Zeit Temperatur Niederschläge Wind Luftdruck Luftfeuchtigkeit
    00:00 +18°C° 0 mm 0 m/S 743 mmHg 95%
    01:00 +18°C° 0 mm 0 m/S 743 mmHg 95%
    02:00 +17°C° 0 mm 0 m/S 743 mmHg 95%
    03:00 +17°C° 0 mm 0 m/S 743 mmHg 95%
    04:00 +17°C° 0 mm 0 m/S 743 mmHg 95%
    05:00 +19°C° 0 mm 1 m/S 743 mmHg 95%
    06:00 +19°C° 0 mm 0 m/S 744 mmHg 90%
    07:00 +20°C° 0 mm 0 m/S 744 mmHg 86%
    08:00 +22°C° 0 mm 0 m/S 745 mmHg 82%
    09:00 +25°C° 0 mm 1 m/S 744 mmHg 78%
    10:00 +26°C° 0 mm 1 m/S 744 mmHg 75%
    11:00 +27°C° 0 mm 2 m/S 744 mmHg 71%
    12:00 +27°C° 0 mm 2 m/S 743 mmHg 73%
    13:00 +27°C° 0 mm 2 m/S 742 mmHg 74%
    14:00 +27°C° 0 mm 2 m/S 742 mmHg 75%
    15:00 +26°C° 0 mm 2 m/S 742 mmHg 80%
    16:00 +25°C° 0 mm 1 m/S 742 mmHg 84%
    17:00 +23°C° 0 mm 1 m/S 743 mmHg 89%
    18:00 +23°C° 0 mm 1 m/S 743 mmHg 91%
    19:00 +22°C° 0 mm 1 m/S 744 mmHg 92%
    20:00 +22°C° 0 mm 1 m/S 744 mmHg 94%
    21:00 +22°C° 0 mm 1 m/S 744 mmHg 94%
    22:00 +21°C° 0 mm 1 m/S 744 mmHg 95%
    23:00 +19°C° 0 mm 0 m/S 744 mmHg 95%

    20 November, Mittwoch

    Zeit Temperatur Niederschläge Wind Luftdruck Luftfeuchtigkeit
    00:00 +19°C° 0 mm 0 m/S 743 mmHg 95%
    01:00 +19°C° 0 mm 0 m/S 743 mmHg 95%
    02:00 +19°C° 0 mm 0 m/S 743 mmHg 94%
    03:00 +19°C° 0 mm 0 m/S 743 mmHg 93%
    04:00 +19°C° 0 mm 0 m/S 743 mmHg 93%
    05:00 +19°C° 0 mm 0 m/S 743 mmHg 92%
    06:00 +20°C° 0 mm 0 m/S 743 mmHg 89%
    07:00 +21°C° 0 mm 0 m/S 744 mmHg 86%
    08:00 +22°C° 0 mm 0 m/S 744 mmHg 83%
    09:00 +25°C° 0 mm 1 m/S 744 mmHg 79%
    10:00 +26°C° 0 mm 1 m/S 743 mmHg 74%
    11:00 +28°C° 0 mm 1 m/S 742 mmHg 70%
    12:00 +28°C° 0 mm 1 m/S 742 mmHg 71%
    13:00 +28°C° 0 mm 1 m/S 741 mmHg 73%
    14:00 +28°C° 0 mm 1 m/S 740 mmHg 74%
    15:00 +27°C° 0 mm 1 m/S 741 mmHg 79%
    16:00 +26°C° 0 mm 1 m/S 741 mmHg 83%
    17:00 +25°C° 0 mm 1 m/S 741 mmHg 88%
    18:00 +22°C° 0 mm 0 m/S 742 mmHg 89%
    19:00 +22°C° 0 mm 0 m/S 742 mmHg 89%
    20:00 +22°C° 0 mm 0 m/S 743 mmHg 90%
    21:00 +22°C° 0 mm 0 m/S 743 mmHg 90%
    22:00 +21°C° 0 mm 0 m/S 743 mmHg 91%
    23:00 +21°C° 0 mm 0 m/S 743 mmHg 92%

    21 November, Donnerstag

    Zeit Temperatur Niederschläge Wind Luftdruck Luftfeuchtigkeit
    00:00 +21°C° 0 mm 0 m/S 743 mmHg 92%
    01:00 +21°C° 0 mm 0 m/S 742 mmHg 92%
    02:00 +21°C° 0 mm 0 m/S 742 mmHg 93%
    03:00 +21°C° 0 mm 0 m/S 742 mmHg 93%
    04:00 +21°C° 0 mm 0 m/S 743 mmHg 93%
    05:00 +21°C° 0 mm 0 m/S 743 mmHg 93%
    06:00 +22°C° 0 mm 0 m/S 743 mmHg 89%
    07:00 +23°C° 0 mm 0 m/S 743 mmHg 85%
    08:00 +24°C° 0 mm 0 m/S 744 mmHg 81%
    09:00 +27°C° 0 mm 1 m/S 743 mmHg 78%
    10:00 +28°C° 0 mm 1 m/S 743 mmHg 75%
    11:00 +28°C° 0 mm 1 m/S 742 mmHg 72%
    12:00 +28°C° 0 mm 1 m/S 741 mmHg 74%
    13:00 +28°C° 0 mm 1 m/S 741 mmHg 76%
    14:00 +28°C° 0 mm 1 m/S 740 mmHg 77%
    15:00 +27°C° 0 mm 1 m/S 740 mmHg 80%
    16:00 +24°C° 0 mm 0 m/S 741 mmHg 83%
    17:00 +24°C° 0 mm 0 m/S 741 mmHg 86%
    18:00 +23°C° 0 mm 0 m/S 741 mmHg 87%
    19:00 +23°C° 0 mm 0 m/S 742 mmHg 88%
    20:00 +23°C° 0 mm 0 m/S 742 mmHg 89%
    21:00 +23°C° 0 mm 0 m/S 742 mmHg 90%
    22:00 +22°C° 0 mm 0 m/S 742 mmHg 92%
    23:00 +22°C° 0 mm 0 m/S 742 mmHg 93%

    22 November, Freitag

    Zeit Temperatur Niederschläge Wind Luftdruck Luftfeuchtigkeit
    00:00 +22°C° 0 mm 0 m/S 742 mmHg 93%
    01:00 +22°C° 0 mm 0 m/S 742 mmHg 94%
    02:00 +22°C° 0 mm 0 m/S 741 mmHg 94%
    03:00 +22°C° 0 mm 0 m/S 742 mmHg 94%
    04:00 +22°C° 0 mm 0 m/S 742 mmHg 93%
    05:00 +22°C° 0 mm 0 m/S 742 mmHg 93%
    06:00 +23°C° 0 mm 0 m/S 742 mmHg 89%
    07:00 +24°C° 0 mm 0 m/S 743 mmHg 85%
    08:00 +25°C° 0 mm 0 m/S 743 mmHg 81%
    09:00 +28°C° 0 mm 1 m/S 742 mmHg 77%
    10:00 +29°C° 0 mm 1 m/S 742 mmHg 73%
    11:00 +30°C° 0 mm 2 m/S 742 mmHg 69%
    12:00 +30°C° 0.1 mm 2 m/S 741 mmHg 71%
    13:00 +30°C° 0.1 mm 2 m/S 740 mmHg 72%
    14:00 +30°C° 0.1 mm 2 m/S 739 mmHg 74%
    15:00 +29°C° 0.1 mm 1 m/S 740 mmHg 79%
    16:00 +28°C° 0.1 mm 1 m/S 740 mmHg 84%
    17:00 +26°C° 0.1 mm 1 m/S 740 mmHg 89%
    18:00 +26°C° 0 mm 1 m/S 741 mmHg 90%
    19:00 +26°C° 0 mm 1 m/S 742 mmHg 92%
    20:00 +26°C° 0 mm 1 m/S 743 mmHg 93%
    21:00 +25°C° 0.1 mm 1 m/S 743 mmHg 94%
    22:00 +23°C° 0.1 mm 0 m/S 743 mmHg 94%
    23:00 +23°C° 0.1 mm 0 m/S 744 mmHg 94%
    Mehr zeigen